Regional Weather Roundup
Issued by NWS

Home | Current Version | Previous Version | Text Only | Print | Product List | Glossary Off
Versions: 1 2 3 4 5 6 7 8 9 10 11 12 13 14 15 16 17 18 19 20 21 22 23 24 25 26 27 28 29 30 31 32 33 34 35 36 37 38 39 40 41 42 43 44 45 46 47 48 49 50

000
ASUS45 KTFX 230310
RWRMT
MONTANA REGIONAL WEATHER ROUNDUP
NATIONAL WEATHER SERVICE GREAT FALLS MT
900 PM MDT FRI MAY 22 2015

NOTE: "FAIR" INDICATES FEW OR NO CLOUDS BELOW 12000 FEET WITH NO
SIGNIFICANT WEATHER AND/OR OBSTRUCTIONS TO VISIBILITY.

MTZ001>007-043-230400-
WEST OF THE DIVIDE

CITY           SKY/WX    TMP DP  RH WIND       PRES   REMARKS
KALISPELL      CLEAR     70  32  24 NE14      29.87R
MISSOULA       CLOUDY    68  36  30 E9        29.86R
BUTTE          CLOUDY    55  41  59 SE9       29.97R
MULLAN PASS    CLOUDY    56  34  43 CALM      29.98R
DEER LODGE       N/A     57  39  51 CALM      29.98R
EUREKA           N/A     73  28  19 E5G21     29.89R
HAMILTON         N/A     61  45  55 S6        29.88S
LIBBY            N/A     75  32  20 NE8       29.84R
RONAN            N/A     66  39  37 E1        29.92R
THOMPSON FALLS   N/A     70  38  31 CALM      29.86R
$$

MTZ008-052>055-230400-
SOUTHWEST MONTANA

CITY           SKY/WX    TMP DP  RH WIND       PRES   REMARKS
BOZEMAN        MOCLDY    57  45  64 SE9       29.93R
DILLON         CLOUDY    54  43  66 NE13      29.93R
W YELLOWSTONE  CLOUDY    48  45  87 CALM      29.97R
THREE FORKS      N/A     59  59 100 NE1       29.94R
TWIN BRIDGES     N/A     56  41  57 N14       29.92R
$$

MTZ009-010-012-014-046-048-049-054-230400-
EAST SLOPES AND CENTRAL MONTANA

CITY           SKY/WX    TMP DP  RH WIND       PRES   REMARKS
CUT BANK       PTCLDY    60  35  39 E9        29.97R
GREAT FALLS    PTCLDY    58  47  66 E7        29.93R
MALMSTROM AFB  PTCLDY    58  49  73 E5        29.93S
HELENA         CLOUDY    63  43  48 E12       29.92R
CONRAD           N/A     64  45  50 NE3       29.99R
$$

MTZ011-013-016-021-045-047-050-051-230400-
NORTH CENTRAL MONTANA

CITY           SKY/WX    TMP DP  RH WIND       PRES   REMARKS
HAVRE          PTCLDY    62  50  64 E8        29.94R
LEWISTOWN      CLOUDY    55  44  66 NE7       29.96F
N BAR RANCH    CLOUDY    57  46  67 CALM      30.00R
CHINOOK          N/A     64  46  52 E6        29.95R
FORT BENTON      N/A     63  45  51 NE16G22   29.94R
$$

MTZ017>020-022>027-061-062-230400-
NORTHEAST MONTANA

CITY           SKY/WX    TMP DP  RH WIND       PRES   REMARKS
GLASGOW        PTCLDY    62  41  46 E9        29.97R
JORDAN           N/A     66  43  43 E14       29.95R
SIDNEY         MOCLDY    61  36  39 SE8       30.02S
WOLF POINT     MOCLDY    62  42  47 SE5       29.99R
MALTA            N/A     64  46  52 CALM      29.93S
PLENTYWOOD       N/A     63  36  36 E10       30.04R
POPLAR           N/A     64  37  36 E6        30.01R
SCOBEY           N/A     59  30  33 E7        30.02R
$$

MTZ028>42-056>058-230400-
SOUTHCENTRAL AND SOUTHEAST MONTANA

CITY           SKY/WX    TMP DP  RH WIND       PRES   REMARKS
BAKER          MOCLDY    52  41  66 SE3       30.04R
BILLINGS       CLOUDY    61  44  53 SE12      29.92R
LIVINGSTON     MOCLDY    53  44  71 SE10      29.93F
MILES CITY     CLOUDY    63  43  48 SE10      29.97R
BIG TIMBER       N/A     54  46  76 SW5       29.96R
EKALAKA          N/A     53  40  61 SE7       30.02R
FORSYTH          N/A     63  43  48 SE8       29.96R
LAUREL           N/A     60  43  53 CALM      29.92R
ROUNDUP          N/A     61  44  53 CALM      29.86R
$$

REGIONAL REPORTS...DAKOTAS

CITY           SKY/WX    TMP DP  RH WIND       PRES   REMARKS
WILLISTON      PTCLDY    66  34  30 SE6       30.04R
MINOT          MOCLDY    61  38  42 CALM      30.07R
DICKINSON      PTCLDY    54  35  48 SE12      30.06R
BEACH          FAIR      54  37  54 SE9       30.06R
CROSBY         FAIR      57  37  47 SE9       30.07R
WATFORD CITY   FAIR      63  32  31 SE9       30.04R
BISMARCK       PTCLDY    55  42  61 SE7       30.09R
GRAND FORKS    PTCLDY    60  44  55 S8        30.11R
FARGO          PTCLDY    66  40  38 SE6       30.13R
BUFFALO SD       N/A     53  37  54 SE14      30.00R
RAPID CITY     CLOUDY    51  42  71 SE14      30.09R
$$

REGIONAL REPORTS...WYOMING/IDAHO/WASHINGTON

CITY           SKY/WX    TMP DP  RH WIND       PRES   REMARKS
GILLETTE       CLOUDY    48  41  76 SE13      30.01S
SHERIDAN       CLOUDY    53  46  77 SE20G28   29.94S
BUFFALO WY     CLOUDY    48  46  93 S12       30.01S
CODY           CLOUDY    48  45  87 CALM      29.96S
YELLOWSTONE LA   N/A     42  40  92 NW3       30.03R
IDAHO FALLS    CLOUDY    54  47  77 W7        29.89R
SALMON         MOCLDY    55  45  67 N5        29.89R
BOISE          MOCLDY    65  49  56 CALM      29.81R
SPOKANE        CLOUDY    66  47  50 SW13      29.83R
$$

REGIONAL REPORTS...ALBERTA

CITY           SKY/WX    TMP DP  RH WIND       PRES   REMARKS
EDMONTON       CLEAR     68  34  28 SE6       29.99R
CALGARY        PTCLDY    66  21  18 SE9       30.02R
LETHBRIDGE     PTCLDY    64  39  39 NE7       29.96R
MEDICINE HAT   PTCLDY    68  34  28 E8        29.96R
$$

REGIONAL REPORTS...SASKATCHEWAN

CITY           SKY/WX    TMP DP  RH WIND       PRES   REMARKS
SWIFT CURRENT  CLEAR     63  30  29 SE7       30.02R
REGINA         PTCLDY    64  36  34 S6        30.04R
SASKATOON      PTCLDY    70  30  23 SW5       30.03R
$$



USA.gov is the U.S. government's official web portal to all federal, state and local government web resources and services.